This is the latest recevied weather packets stored in our database for station/object W5MAI. If no packets are shown the sender has not sent any weather packets the latest 10 day(s).
| Time | Temp. | Humidity | Pressure | Rain* | Wind** | Luminosity | Snow |
|---|---|---|---|---|---|---|---|
| 1777593252 | 23.33° C | 77% | 1011.6 hPa | 0 mm | - | 114 W/m² | - |
| 1777592660 | 23.33° C | 76% | 1011.7 hPa | 0 mm | - | 100 W/m² | - |
| 1777592023 | 23.33° C | 76% | 1011.4 hPa | 0 mm | - | 100 W/m² | - |
| 1777591451 | 23.33° C | 76% | 1011.2 hPa | 0 mm | - | 91 W/m² | - |
| 1777590816 | 22.78° C | 76% | 1011.5 hPa | 0 mm | - | 174 W/m² | - |
| 1777590248 | 22.78° C | 75% | 1011.6 hPa | 0 mm | - | 128 W/m² | - |
| 1777589612 | 22.78° C | 76% | 1011.6 hPa | 0 mm | - | 151 W/m² | - |
| 1777589029 | 22.78° C | 75% | 1011.7 hPa | 0 mm | - | 141 W/m² | - |
| 1777588460 | 22.78° C | 75% | 1011.6 hPa | 0 mm | - | 128 W/m² | - |
| 1777587821 | 22.78° C | 76% | 1011.7 hPa | 0 mm | - | 142 W/m² | - |
| 1777587251 | 22.78° C | 76% | 1011.6 hPa | 0 mm | - | 227 W/m² | - |
| 1777586609 | 22.78° C | 77% | 1011.4 hPa | 0 mm | - | 295 W/m² | - |
| 1777586038 | 22.78° C | 79% | 1011.5 hPa | 0 mm | - | 264 W/m² | - |
| 1777585407 | 22.78° C | 80% | 1011.5 hPa | 0 mm | - | 241 W/m² | - |
| 1777584831 | 22.78° C | 79% | 1011.6 hPa | 0 mm | - | 213 W/m² | - |
| 1777584262 | 22.78° C | 78% | 1011.6 hPa | 0 mm | - | 318 W/m² | - |
| 1777583609 | 22.78° C | 79% | 1011.5 hPa | 0 mm | - | 380 W/m² | - |
| 1777583038 | 22.78° C | 79% | 1011.7 hPa | 0 mm | - | 323 W/m² | - |
| 1777582462 | 22.78° C | 79% | 1012.1 hPa | 0 mm | - | 360 W/m² | - |
| 1777581830 | 22.78° C | 80% | 1012.2 hPa | 0 mm | - | 754 W/m² | - |
| 1777581246 | 21.67° C | 81% | 1012.3 hPa | 0 mm | - | 868 W/m² | - |
| 1777580651 | 21.11° C | 83% | 1012.5 hPa | 0 mm | - | 714 W/m² | - |
| 1777580007 | 20.56° C | 85% | 1013 hPa | 0 mm | - | 338 W/m² | - |
| 1777579429 | 20° C | 85% | 1013 hPa | 0 mm | - | 318 W/m² | - |
| 1777578834 | 19.44° C | 87% | 1013 hPa | 0 mm | - | 404 W/m² | - |
* Rain latest hour (hover to see other rain measurements)
** Current wind speed in m/s (hover to see current wind gust speed)